When you browse on this site, cookies collect data to enhance your experience and personalize the content and advertising you see.
Visit our Privacy Policy to learn more. By continuing to use the site, you agree to this use of cookies and data.
  • In Österreich
  • Länderverzeichnis
  • Für 7 Tage
  • Wassertemperatur
  • Wetterkarte
  • News
  • Widgets
  • user-avatar
    Anmelden

    Stündliche Wetter An der Strass

    Heute, 26 Januar, Sonntag

    Zeit Temperatur Niederschläge Wind Luftdruck Luftfeuchtigkeit
    00:00 +1°C° 0 mm 0 m/S 713 mmHg 79%
    01:00 +1°C° 0 mm 0 m/S 713 mmHg 79%
    02:00 +1°C° 0 mm 0 m/S 713 mmHg 79%
    03:00 +1°C° 0 mm 0 m/S 713 mmHg 80%
    04:00 +1°C° 0 mm 0 m/S 712 mmHg 80%
    05:00 +1°C° 0 mm 0 m/S 712 mmHg 81%
    06:00 +1°C° 0 mm 0 m/S 712 mmHg 82%
    07:00 +1°C° 0 mm 0 m/S 712 mmHg 83%
    08:00 +2°C° 0 mm 0 m/S 712 mmHg 79%
    09:00 +3°C° 0 mm 0 m/S 713 mmHg 76%
    10:00 +4°C° 0 mm 0 m/S 713 mmHg 73%
    11:00 +5°C° 0 mm 0 m/S 713 mmHg 70%
    12:00 +6°C° 0 mm 0 m/S 712 mmHg 68%
    13:00 +8°C° 0 mm 0 m/S 712 mmHg 65%
    14:00 +7°C° 0 mm 0 m/S 712 mmHg 70%
    15:00 +6°C° 0 mm 0 m/S 712 mmHg 75%
    16:00 +6°C° 0 mm 0 m/S 712 mmHg 79%
    17:00 +5°C° 0 mm 0 m/S 712 mmHg 82%
    18:00 +4°C° 0 mm 0 m/S 712 mmHg 86%
    19:00 +4°C° 0 mm 1 m/S 712 mmHg 89%
    20:00 +4°C° 0 mm 1 m/S 712 mmHg 89%
    21:00 +4°C° 0 mm 1 m/S 712 mmHg 89%
    22:00 +4°C° 0 mm 1 m/S 712 mmHg 89%
    23:00 +4°C° 0 mm 1 m/S 712 mmHg 88%

    Morgen, 27 Januar, Montag

    Zeit Temperatur Niederschläge Wind Luftdruck Luftfeuchtigkeit
    00:00 +4°C° 0 mm 1 m/S 712 mmHg 88%
    01:00 +4°C° 0 mm 1 m/S 712 mmHg 87%
    02:00 +4°C° 0 mm 1 m/S 712 mmHg 86%
    03:00 +3°C° 0 mm 1 m/S 712 mmHg 85%
    04:00 +3°C° 0 mm 1 m/S 712 mmHg 84%
    05:00 +3°C° 0 mm 1 m/S 711 mmHg 83%
    06:00 +3°C° 0 mm 1 m/S 711 mmHg 83%
    07:00 +3°C° 0 mm 1 m/S 711 mmHg 82%
    08:00 +4°C° 0 mm 1 m/S 711 mmHg 78%
    09:00 +5°C° 0 mm 1 m/S 711 mmHg 74%
    10:00 +6°C° 0 mm 1 m/S 711 mmHg 70%
    11:00 +7°C° 0 mm 1 m/S 710 mmHg 67%
    12:00 +8°C° 0 mm 0 m/S 710 mmHg 63%
    13:00 +9°C° 0 mm 0 m/S 709 mmHg 60%
    14:00 +8°C° 0 mm 0 m/S 709 mmHg 64%
    15:00 +8°C° 0 mm 0 m/S 708 mmHg 69%
    16:00 +8°C° 0 mm 1 m/S 708 mmHg 73%
    17:00 +7°C° 0 mm 1 m/S 707 mmHg 73%
    18:00 +6°C° 0 mm 1 m/S 707 mmHg 74%
    19:00 +5°C° 0 mm 2 m/S 707 mmHg 74%
    20:00 +4°C° 0 mm 2 m/S 706 mmHg 73%
    21:00 +4°C° 0 mm 2 m/S 706 mmHg 72%
    22:00 +5°C° 0 mm 1 m/S 706 mmHg 71%
    23:00 +5°C° 0.1 mm 1 m/S 705 mmHg 73%

    übermorgen, 28 Januar, Dienstag

    Zeit Temperatur Niederschläge Wind Luftdruck Luftfeuchtigkeit
    00:00 +5°C° 0.1 mm 1 m/S 705 mmHg 75%
    01:00 +5°C° 0.1 mm 1 m/S 704 mmHg 77%
    02:00 +5°C° 0.2 mm 1 m/S 703 mmHg 79%
    03:00 +3°C° 0.2 mm 2 m/S 703 mmHg 82%
    04:00 +3°C° 0.2 mm 2 m/S 702 mmHg 84%
    05:00 +3°C° 0.8 mm 2 m/S 702 mmHg 86%
    06:00 +3°C° 0.8 mm 2 m/S 701 mmHg 88%
    07:00 +2°C° 0.8 mm 3 m/S 701 mmHg 90%
    08:00 +3°C° 1.1 mm 3 m/S 701 mmHg 89%
    09:00 +3°C° 1.1 mm 3 m/S 701 mmHg 89%
    10:00 +3°C° 1.1 mm 3 m/S 701 mmHg 88%
    11:00 +2°C° 2 mm 3 m/S 701 mmHg 88%
    12:00 +1°C° 2 mm 4 m/S 701 mmHg 87%
    13:00 0°C° 2 mm 5 m/S 702 mmHg 87%
    14:00 0°C° 0.9 mm 5 m/S 703 mmHg 84%
    15:00 0°C° 0.9 mm 5 m/S 703 mmHg 81%
    16:00 0°C° 0.9 mm 5 m/S 704 mmHg 78%
    17:00 -1°C° 0.2 mm 4 m/S 705 mmHg 81%
    18:00 -1°C° 0.2 mm 3 m/S 705 mmHg 83%
    19:00 -2°C° 0.2 mm 3 m/S 706 mmHg 86%
    20:00 -2°C° 0 mm 3 m/S 706 mmHg 83%
    21:00 -2°C° 0 mm 3 m/S 706 mmHg 80%
    22:00 -2°C° 0 mm 3 m/S 706 mmHg 78%
    23:00 -2°C° 0.1 mm 3 m/S 706 mmHg 80%

    29 Januar, Mittwoch

    Zeit Temperatur Niederschläge Wind Luftdruck Luftfeuchtigkeit
    00:00 -3°C° 0.1 mm 4 m/S 705 mmHg 82%
    01:00 -3°C° 0.1 mm 4 m/S 705 mmHg 84%
    02:00 -3°C° 0.5 mm 4 m/S 705 mmHg 87%
    03:00 -2°C° 0.5 mm 4 m/S 704 mmHg 90%
    04:00 -2°C° 0.5 mm 4 m/S 704 mmHg 93%
    05:00 -2°C° 0.7 mm 5 m/S 704 mmHg 93%
    06:00 -1°C° 0.7 mm 5 m/S 704 mmHg 94%
    07:00 -1°C° 0.7 mm 5 m/S 704 mmHg 94%
    08:00 -1°C° 2 mm 5 m/S 705 mmHg 93%
    09:00 -1°C° 2 mm 4 m/S 706 mmHg 93%
    10:00 -1°C° 2 mm 4 m/S 706 mmHg 92%
    11:00 0°C° 1.1 mm 3 m/S 707 mmHg 93%
    12:00 0°C° 1.1 mm 3 m/S 707 mmHg 94%
    13:00 +1°C° 1.1 mm 2 m/S 707 mmHg 95%
    14:00 +1°C° 0.9 mm 2 m/S 707 mmHg 95%
    15:00 +1°C° 0.9 mm 2 m/S 708 mmHg 94%
    16:00 +1°C° 0.9 mm 2 m/S 708 mmHg 94%
    17:00 +1°C° 0.5 mm 2 m/S 708 mmHg 94%
    18:00 -1°C° 0.5 mm 2 m/S 709 mmHg 94%
    19:00 -1°C° 0.5 mm 2 m/S 710 mmHg 94%
    20:00 -1°C° 0.3 mm 2 m/S 710 mmHg 94%
    21:00 -1°C° 0.3 mm 2 m/S 711 mmHg 94%
    22:00 -1°C° 0.3 mm 2 m/S 711 mmHg 93%
    23:00 -1°C° 0.2 mm 2 m/S 711 mmHg 94%

    30 Januar, Donnerstag

    Zeit Temperatur Niederschläge Wind Luftdruck Luftfeuchtigkeit
    00:00 -1°C° 0.2 mm 2 m/S 712 mmHg 94%
    01:00 -1°C° 0.2 mm 2 m/S 712 mmHg 95%
    02:00 -2°C° 0.1 mm 2 m/S 712 mmHg 94%
    03:00 -2°C° 0.1 mm 2 m/S 712 mmHg 94%
    04:00 -2°C° 0.1 mm 2 m/S 712 mmHg 93%
    05:00 -3°C° 0 mm 2 m/S 712 mmHg 90%
    06:00 -3°C° 0 mm 2 m/S 712 mmHg 88%
    07:00 -4°C° 0 mm 2 m/S 712 mmHg 85%
    08:00 0°C° 0 mm 1 m/S 712 mmHg 83%
    09:00 +1°C° 0 mm 1 m/S 713 mmHg 81%
    10:00 +2°C° 0 mm 1 m/S 713 mmHg 78%
    11:00 +3°C° 0 mm 1 m/S 712 mmHg 81%
    12:00 +3°C° 0 mm 0 m/S 712 mmHg 83%
    13:00 +4°C° 0 mm 0 m/S 711 mmHg 85%
    14:00 +4°C° 0 mm 0 m/S 711 mmHg 85%
    15:00 +4°C° 0 mm 0 m/S 711 mmHg 86%
    16:00 +4°C° 0 mm 0 m/S 710 mmHg 87%
    17:00 +3°C° 0 mm 0 m/S 710 mmHg 84%
    18:00 +3°C° 0 mm 1 m/S 711 mmHg 82%
    19:00 +2°C° 0 mm 1 m/S 711 mmHg 80%
    20:00 +2°C° 0 mm 1 m/S 711 mmHg 78%
    21:00 +2°C° 0 mm 1 m/S 711 mmHg 76%
    22:00 +2°C° 0 mm 1 m/S 711 mmHg 74%
    23:00 +2°C° 0 mm 1 m/S 711 mmHg 73%

    31 Januar, Freitag

    Zeit Temperatur Niederschläge Wind Luftdruck Luftfeuchtigkeit
    00:00 +2°C° 0 mm 1 m/S 711 mmHg 72%
    01:00 +2°C° 0 mm 1 m/S 711 mmHg 71%
    02:00 +2°C° 0 mm 1 m/S 711 mmHg 71%
    03:00 +2°C° 0 mm 1 m/S 710 mmHg 70%
    04:00 +3°C° 0 mm 1 m/S 710 mmHg 70%
    05:00 +3°C° 0 mm 1 m/S 710 mmHg 71%
    06:00 +3°C° 0 mm 1 m/S 711 mmHg 72%
    07:00 +3°C° 0 mm 1 m/S 711 mmHg 72%
    08:00 +4°C° 0 mm 1 m/S 711 mmHg 75%
    09:00 +5°C° 0 mm 1 m/S 711 mmHg 77%
    10:00 +5°C° 0 mm 1 m/S 711 mmHg 79%
    11:00 +7°C° 0 mm 1 m/S 712 mmHg 81%
    12:00 +7°C° 0 mm 0 m/S 712 mmHg 83%
    13:00 +8°C° 0 mm 0 m/S 712 mmHg 86%
    14:00 +8°C° 0 mm 0 m/S 712 mmHg 88%
    15:00 +7°C° 0 mm 0 m/S 711 mmHg 90%
    16:00 +7°C° 0 mm 0 m/S 711 mmHg 92%
    17:00 +7°C° 0 mm 1 m/S 712 mmHg 89%
    18:00 +6°C° 0 mm 1 m/S 712 mmHg 87%
    19:00 +5°C° 0 mm 1 m/S 712 mmHg 84%
    20:00 +5°C° 0 mm 1 m/S 712 mmHg 84%
    21:00 +5°C° 0 mm 1 m/S 712 mmHg 83%
    22:00 +5°C° 0 mm 1 m/S 713 mmHg 83%
    23:00 +5°C° 0 mm 1 m/S 713 mmHg 83%
    Mehr zeigen